Regional Weather Roundup
Issued by NWS

Home | Current Version | Previous Version | Graphics & Text | Print | Product List | Glossary On
Versions: 1 2 3 4 5 6 7 8 9 10 11 12 13 14 15 16 17 18 19 20 21 22 23 24 25 26 27 28 29 30 31 32 33 34 35 36 37 38 39 40 41 42 43 44 45 46 47 48 49
000
ASUS43 KDMX 050107
RWRIA

WEATHER ROUNDUP FOR IOWA
NATIONAL WEATHER SERVICE DES MOINES IA
800 PM CDT FRI SEP 04 2015

NOTE: "FAIR" INDICATES FEW OR NO CLOUDS BELOW 12,000 FEET WITH NO
SIGNIFICANT WEATHER AND/OR OBSTRUCTIONS TO VISIBILITY.

* - THESE STATIONS ARE NOT NWS STATIONS...THUS NOT UNDER NWS
QUALITY CONTROL.  THEY ALSO DO NOT REPORT WEATHER SUCH
AS PRECIPITATION OR FOG.

IAZ001>003-012>014-020>022-031>034-043>046-050200-
   NORTHWEST IOWA

CITY           SKY/WX    TMP DP  RH WIND       PRES   REMARKS
CARROLL *      CLEAR     75  73  94 SE7       29.92R
CHEROKEE *     MOCLDY    79  73  83 SE7       29.90S HX  82
DENISON *      CLEAR     79  72  78 SE8G17    29.89R HX  82
LE MARS *      CLEAR     81  73  78 SE8G15    29.87F HX  85
ORANGE CITY *  CLEAR     79  73  83 SE6       29.89S HX  82
SHELDON *      CLEAR     77  73  88 SE8       29.88S
SIOUX CITY     PTCLDY    82  72  71 SE12      29.84S HX  87
SPENCER        HAZE      80  71  74 SE12      29.91S VSB 1/2 HX  84
STORM LAKE *   CLEAR     77  72  83 SE6       29.93S
$$

IAZ055>058-069>071-079>083-090>094-050200-
   SOUTHWEST IOWA

CITY           SKY/WX    TMP DP  RH WIND       PRES   REMARKS
ATLANTIC *     CLEAR     81  72  74 SE6       29.92R HX  84
AUDUBON *      CLEAR     77  72  83 CALM      29.94R
CLARINDA *     CLEAR     81  72  74 SE6       29.93R HX  84
COUNCIL BLFS * CLEAR     81  72  74 SE13      29.89S HX  84
CRESTON *      CLEAR     79  72  78 S8        29.95S HX  82
LAMONI         PTCLDY    83  70  64 SE6       29.95S HX  87
RED OAK *      CLOUDY    79  72  78 S3        29.91R HX  82
SHENANDOAH *   CLEAR     81  70  69 SE5       29.91R HX  84
$$

IAZ047>049-059>061-072>074-084-050200-
   CENTRAL IOWA

CITY           SKY/WX    TMP DP  RH WIND       PRES   REMARKS
AMES           MOCLDY    79  73  82 SE3       29.94R HX  82
ANKENY *       CLEAR     81  73  78 CALM      29.93S HX  85
CHARITON *     PTCLDY    79  72  78 SE5       29.95S HX  82
DES MOINES     MOCLDY    85  70  60 SE8       29.93S HX  89
GRINNELL*      CLEAR     79  72  78 SE6       29.97S HX  82
KNOXVILLE *    CLEAR     82  72  69 SE5       29.94S HX  87
MARSHALLTOWN   PTCLDY    80  72  76 SE5       29.95R HX  84
PELLA *        PTCLDY    79  75  89 SE3       29.96S HX  82
PERRY *          N/A     79  73  83 SE6       29.93R HX  82
$$

IAZ004>006-015-016-023>025-035-036-050200-
   NORTH CENTRAL IOWA

CITY           SKY/WX    TMP DP  RH WIND       PRES   REMARKS
ALGONA *       CLEAR     79  75  89 SE7       29.94S HX  82
CLARION *      CLEAR     79  72  78 SE7       29.95S HX  82
ESTHERVILLE    MOCLDY    76  73  91 SE7       29.93R
FORT DODGE *   CLOUDY    79  70  73 E5        29.94S HX  81
MASON CITY     LGT RAIN  78  75  90 CALM      29.98R HX  81
FOREST CITY *    N/A     77  75  94 E6        29.96S
IOWA FALLS *     N/A     79  73  83 CALM      29.97R HX  82
$$

IAZ007>011-017>019-026>030-037>042-050>054-066-050200-
   NORTHEAST IOWA

CITY           SKY/WX    TMP DP  RH WIND       PRES   REMARKS
CEDAR RAPIDS   CLEAR     78  74  87 CALM      29.97R HX  81
CHARLES CITY * CLOUDY    79  77  94 SE5       29.98R HX  83
CLINTON *      PTCLDY    81  73  78 E6        30.01R HX  85
DECORAH *      MOCLDY    79  73  83 SE3       29.98R HX  82
DUBUQUE        CLEAR     78  71  79 CALM      30.01R HX  80
MONTICELLO *   CLEAR     77  73  88 CALM      29.98R
OELWEIN *      PTCLDY    77  73  88 SE5       29.99R
WATERLOO       PTCLDY    82  71  69 SE5       29.95R HX  86
$$

IAZ064-065-067-068-078-050200-
   EAST CENTRAL IOWA

CITY           SKY/WX    TMP DP  RH WIND       PRES   REMARKS
DAVENPORT      CLEAR     75  71  87 S3        29.98R
IOWA CITY      CLEAR     83  73  72 CALM      29.97R HX  89
MT. PLEASANT * CLEAR     82  68  61 SE5       29.97R HX  85
MUSCATINE *    CLEAR     82  73  74 CALM      29.96S HX  88
QUAD CITIES    CLEAR     79  72  79 CALM      29.97R HX  82
$$

IAZ062-063-075>077-085>089-095>099-050200-
   SOUTHEAST IOWA

CITY           SKY/WX    TMP DP  RH WIND       PRES   REMARKS
BURLINGTON     CLEAR     81  71  71 CALM      29.97S HAZE    HX  85
FAIRFIELD *    CLEAR     81  70  69 CALM      29.97R HX  84
FORT MADISON * CLEAR     81  72  74 CALM      29.98S HX  84
KEOKUK *       CLEAR     81  72  74 CALM      29.96S HX  84
OSKALOOSA *      N/A     75  70  83 SE5       29.97R
CENTERVILLE *  CLEAR     77  72  83 SE5       29.98R
OTTUMWA        CLEAR     78  71  79 S3        29.95R HX  80
WASHINGTON *     N/A    N/A N/A N/A MISG        N/A
$$

ABBREVIATIONS USED IN REMARKS
   TC - TEMPERATURES IN CELSIUS
  WCI - WIND CHILL INDEX
   HX - HEAT INDEX
  VSB - VISIBILITY
$$




USA.gov is the U.S. government's official web portal to all federal, state and local government web resources and services.